Location: Poughquag
(41.6090°N, 73.6820°W)
Time: 12:43:21
(UTC-04:00)

Transit 2A - Pass Details

Date: 05 June 2020
Orbit: 592 x 967 km, 66.7° (Epoch: 06 July)

Event Time Altitude Azimuth Distance (km) Brightness Sun altitude
Rises 13:32:17 0° 231° (SW) 3,045 9.4 69.4°
Reaches altitude 10° 13:34:38 10° 240° (WSW) 2,187 8.8 69.2°
Maximum altitude 13:39:19 39° 309° (NW) 1,135 7.5 68.7°
Drops below altitude 10° 13:44:32 10° 18° (NNE) 2,439 8.5 68.2°
Sets 13:47:18 0° 26° (NNE) 3,439 9.1 67.9°
